Idaho Falls, ID

5:01 PM MST on January 23, 2018 (GMT -0700)
Fanning

Weather History for KIDA - August, 2013

Change the Weather History Date:

Tuesday, August 6, 2013

  Actual Average Record
Temperature  
Mean Temperature 69 °F 69 °F  
Max Temperature 91 °F 88 °F 98 °F (1983)
Min Temperature 47 °F 50 °F 42 °F (1950)
Degree Days  
Heating Degree Days 0 0  
Month to date heating degree days 0 0  
Since 1 June heating degree days 100 180  
Since 1 July heating degree days 0 27  
Cooling Degree Days 4 4  
Month to date cooling degree days 26 24  
Year to date cooling degree days 317 179  
Since 1 June cooling degree days 313 177  
Growing Degree Days 20 (Base 50)    
Moisture  
Dew Point 37 °F    
Average Humidity 41    
Maximum Humidity 68    
Minimum Humidity 14    
Precipitation  
Precipitation 0.00 in 0.01 in 0.49 in (2014)
Month to date precipitation 0.00 0.09  
Year to date precipitation 2.43 6.53  
Sea Level Pressure  
Sea Level Pressure 29.89 in    
Wind  
Wind Speed 6 mph (SSE)    
Max Wind Speed 17 mph    
Max Gust Speed 22 mph    
Visibility 10 miles    
Events      
T = Trace of Precipitation, MM = Missing Value Source: NWS Daily Summary

Daily Weather History Graph

Daily Weather History Graph

Search for Another Location

Airport or City:

Trip Planner

Search our weather history database for the weather conditions in past years. The results will help you decide how hot, cold, wet, or windy it might be!

Date:

Astronomy

Aug. 06, 2013 Rise Set
Actual Time 6:23 AM MDT 8:43 PM MDT
Civil Twilight 5:51 AM MDT 9:15 PM MDT
Nautical Twilight 5:11 AM MDT 9:55 PM MDT
Astronomical Twilight 4:27 AM MDT 10:39 PM MDT
Moon 6:20 AM MDT (8/6) 8:17 PM MDT (8/6)
Length of Visible Light 15h 24m
Length of Day
14h 20m
Waning Crescent, 0% of the Moon is Illuminated
Aug 6
Waning Crescent
Aug 6
New
Aug 14
First Quarter
Aug 20
Full
Aug 28
Last Quarter

Hourly Weather History & Observations

Time (MDT) Temp. Dew Point Humidity Pressure Visibility Wind Dir Wind Speed Gust Speed Precip Events Conditions
12:53 AM 66.9 °F 34.0 °F 30% 29.84 in 10.0 mi Calm Calm - N/A   Clear
1:53 AM 66.0 °F 37.9 °F 36% 29.85 in 10.0 mi ENE 3.5 mph - N/A   Clear
2:53 AM 63.0 °F 37.0 °F 38% 29.86 in 10.0 mi East 4.6 mph - N/A   Clear
3:53 AM 52.0 °F 41.0 °F 66% 29.89 in 10.0 mi North 4.6 mph - N/A   Clear
4:53 AM 55.0 °F 39.9 °F 57% 29.89 in 10.0 mi Calm Calm - N/A   Clear
5:53 AM 55.9 °F 39.9 °F 55% 29.91 in 10.0 mi NNE 4.6 mph - N/A   Clear
6:53 AM 51.1 °F 39.0 °F 63% 29.94 in 10.0 mi NE 3.5 mph - N/A   Clear
7:53 AM 57.0 °F 41.0 °F 55% 29.95 in 10.0 mi NNE 4.6 mph - N/A   Clear
8:53 AM 64.9 °F 39.0 °F 39% 29.96 in 10.0 mi Calm Calm - N/A   Clear
9:53 AM 73.9 °F 37.0 °F 26% 29.96 in 10.0 mi Variable 3.5 mph - N/A   Clear
10:53 AM 79.0 °F 37.9 °F 23% 29.95 in 10.0 mi East 5.8 mph - N/A   Clear
11:53 AM 82.0 °F 37.0 °F 20% 29.95 in 8.0 mi Variable 3.5 mph - N/A   Smoke
12:53 PM 84.9 °F 36.0 °F 17% 29.93 in 10.0 mi WSW 6.9 mph - N/A   Smoke
1:53 PM 87.1 °F 35.1 °F 16% 29.91 in 10.0 mi Variable 4.6 mph - N/A   Smoke
2:53 PM 87.1 °F 34.0 °F 15% 29.90 in 10.0 mi South 3.5 mph - N/A   Smoke
3:53 PM 89.1 °F 36.0 °F 15% 29.90 in 10.0 mi South 12.7 mph 21.9 mph N/A   Smoke
4:53 PM 89.1 °F 36.0 °F 15% 29.87 in 10.0 mi South 16.1 mph - N/A   Clear
5:53 PM 90.0 °F 33.1 °F 13% 29.85 in 10.0 mi South 10.4 mph - N/A   Scattered Clouds
6:53 PM 87.1 °F 32.0 °F 14% 29.86 in 10.0 mi South 8.1 mph - N/A   Scattered Clouds
7:53 PM 86.0 °F 32.0 °F 14% 29.83 in 10.0 mi SE 9.2 mph - N/A   Clear
8:53 PM 81.0 °F 33.1 °F 18% 29.83 in 10.0 mi South 4.6 mph - N/A   Clear
9:53 PM 75.9 °F 35.1 °F 23% 29.85 in 10.0 mi SW 9.2 mph 16.1 mph N/A   Clear
10:53 PM 70.0 °F 36.0 °F 29% 29.86 in 10.0 mi SW 8.1 mph - N/A   Clear
11:53 PM 66.9 °F 39.0 °F 36% 29.86 in 10.0 mi SW 8.1 mph - N/A   Clear